Regional Weather Roundup
Issued by NWS Goodland, KS

Home | Current Version | Previous Version | Text Only | Print | Product List | Glossary Off
Versions: 1 2 3 4 5 6 7 8 9 10 11 12 13 14 15 16 17 18 19 20 21 22 23 24 25 26 27 28 29 30 31 32 33 34 35 36 37 38 39 40 41 42 43 44 45 46 47 48 49 50

000
ASUS43 KGLD 172359
RWRGLD

GOODLAND FORECAST AREA HOURLY WEATHER ROUNDUP
NATIONAL WEATHER SERVICE GOODLAND KS
600 PM MDT WED SEP 17 2014

...OFFICIAL OBSERVATIONS...

CITY           SKY/WX    TMP DP  RH WIND       PRES   REMARKS
GOODLAND KS    PTCLDY    79  59  50 S7        29.92F
HILL CITY KS   PTCLDY    81  65  58 E13       29.87R
IMPERIAL NEB   PTCLDY    84  58  40 E9        29.90R
MCCOOK NEB     CLEAR     80  61  52 E12       29.88S
AKRON CO       LGT RAIN  76  40  27 SW22G81   30.04R SQUALL
BURLINGTON CO  PTCLDY    85  44  23 SW5       29.95S
LIMON CO       MOSUNNY   83  37  19 S3        30.03S
$$

...UNOFFICIAL OBSERVATIONS...

CITY           SKY/WX    TMP DP  RH WIND       PRES   REMARKS
COLBY KS       MOCLDY    84  63  48 SE3       29.91R
GOVE KS          N/A     84  32  15 MISG        N/A
NORTON KS      CLEAR     79  57  47 E10       29.88S
SHARON SPRINGS   N/A     87  46  23 CALM        N/A
WAKEENEY KS      N/A     82  58  43 MISG        N/A
TRENTON NEB      N/A     80  32  17 E10         N/A
YUMA CO          N/A     84  47  27 CALM        N/A
$$



USA.gov is the U.S. government's official web portal to all federal, state and local government web resources and services.